Αρχική σελίδα
METAR-TAF:

METAR-TAF

Αεροδρόμια :

El Borma, Τυνησία

γεωγραφικό πλάτος: 31-41N, γεωγραφικό μήκος: 009-10E, υψόμετρο: 258 μ

Παρών καιρός

Η αναφορά έγινε 1 ώρα και 48 λεπτά πριν, στις 07:00 UTC
Άνεμος 6 kt από Α, μεταβλητός μεταξύ Β/BA και Α/NA
Θερμοκρασία 25°C
Υγρασία 39%
Πίεση 1019 hPa
Ορατότητα 10 χλμ και άνω
Δεν υπάρχουν νέφη με βάση κάτω από τα 1500 μ. και δεν υπάρχουν νέφη σωρειτομελανίτες.

METAR: DTTR 190700Z 10006KT 030V120 CAVOK 25/10 Q1019

Χρόνος: 09:48 (08:48 UTC)


TAF: λείπει

Μετεωρολογικές αναφορές και προγνώσεις για περισσότερα από 4000 αεροδρόμια (δελτία METAR και TAF).

Οι διαθέσιμοι σταθμοί απεικονίζονται στο χάρτη με κίτρινες και κόκκινες κουκκίδες.

Μετακινήστε το ποντίκι πάνω από τις κουκκίδες για να δείτε το όνομα του σταθμού.

Στη συνέχεια, κάντε κλικ για να δείτε τις μετεωρολογικές αναφορές και τις προγνώσεις καιρού.

Για να αλλάξετε το χάρτη: κάντε κλικ στα πράσινα κουμπιά με τον μαύρο σταυρό για να ζουμάρετε, στο πράσινο κουμπί με την παύλα για να αφαιρέσετε το ζουμ ή στα πράσινα βέλη για να αντιπαραβάλλετε χάρτες.


METAR-TAF: